Date,TemperatureHighF,TemperatureAvgF,TemperatureLowF,DewpointHighF,DewpointAvgF,DewpointLowF,HumidityHigh,HumidityAvg,HumidityLow,PressureMaxIn,PressureMinIn,WindSpeedMaxMPH,WindSpeedAvgMPH,GustSpeedMaxMPH,PrecipitationSumIn
2013-1-1,32.4,25.0,16.3,21.0,4.6,-9.0,76,45,17,30.03,29.92,9,2,15,0.01
2013-1-2,45.9,38.2,30.9,20.0,0.2,-28.0,44,23,5,29.92,29.66,6,2,8,0.01
2013-1-3,35.3,29.0,23.8,23.0,17.6,7.0,92,65,30,29.87,29.61,10,3,12,0.01
2013-1-4,35.7,28.6,21.6,23.0,11.7,-22.0,94,61,9,30.03,29.87,5,1,7,0.00
2013-1-5,45.8,38.0,31.7,12.0,-3.7,-21.0,28,17,9,30.05,29.91,5,1,6,0.00
2013-1-6,46.0,40.1,33.1,15.0,-4.5,-23.0,47,19,6,29.90,29.53,15,4,18,0.00
2013-1-7,35.3,30.5,26.4,22.0,18.0,12.0,77,60,45,29.62,29.46,7,2,18,0.00
2013-1-8,44.0,36.8,29.8,22.0,14.6,5.0,72,43,22,29.82,29.61,8,2,14,0.00
2013-1-9,45.3,41.4,36.4,15.0,6.3,-5.0,39,24,13,29.90,29.73,17,7,21,0.00
2013-1-10,42.0,37.9,29.2,24.0,12.2,-3.0,81,37,15,29.73,29.38,30,11,44,0.00
2013-1-11,28.8,17.8,13.6,26.0,10.7,0.0,94,75,47,29.73,29.37,33,9,48,0.00
2013-1-12,17.1,13.5,11.1,6.0,1.6,-3.0,69,59,46,29.93,29.73,15,7,22,0.00
2013-1-13,23.8,16.0,11.6,5.0,-3.5,-21.0,63,43,20,29.94,29.80,10,2,15,0.00
2013-1-14,16.3,12.0,6.5,4.0,-2.6,-16.0,72,53,26,30.01,29.80,16,6,23,0.00
2013-1-15,28.6,18.1,6.7,2.0,-5.2,-18.0,77,40,16,30.25,30.00,14,4,20,0.00
2013-1-16,41.3,34.7,25.6,12.0,5.9,-3.0,34,30,27,30.22,29.98,15,7,18,0.00
2013-1-17,45.5,42.8,39.1,15.0,9.3,3.0,31,25,18,29.98,29.84,11,3,12,0.00
2013-1-18,51.4,45.7,42.8,14.0,2.2,-11.0,26,17,9,29.88,29.78,10,3,14,0.00
2013-1-19,51.9,45.7,42.4,20.0,9.2,-26.0,38,26,4,29.87,29.78,11,3,15,0.00
2013-1-20,53.0,45.8,41.5,30.0,25.1,18.0,53,45,35,29.82,29.70,6,2,12,0.00
2013-1-21,54.2,47.6,44.5,32.0,28.8,27.0,59,49,38,29.76,29.68,7,2,10,0.00
2013-1-22,52.4,47.5,44.0,30.0,25.1,16.0,55,43,28,29.84,29.76,6,2,10,0.00
2013-1-23,52.2,47.6,43.9,28.0,24.1,18.0,46,40,34,29.88,29.81,7,2,11,0.00
2013-1-24,48.2,45.0,41.0,42.0,34.3,26.0,94,68,46,29.87,29.75,21,7,27,0.23
2013-1-25,51.4,47.5,43.8,43.0,38.7,34.0,85,72,61,29.84,29.64,15,5,25,0.23
2013-1-26,44.1,40.6,36.9,43.0,39.3,35.0,98,95,84,29.63,29.48,26,8,48,0.12
2013-1-27,38.8,36.6,34.6,37.0,35.2,33.0,97,94,89,29.69,29.61,23,7,28,0.01
2013-1-28,36.1,28.2,20.0,35.0,27.1,19.0,98,95,90,29.61,29.54,35,13,48,0.01
2013-1-29,22.5,18.3,14.2,17.0,13.9,-99.9,94,86,71,30.02,29.61,38,7,48,0.00
2013-1-30,38.9,29.2,19.0,19.0,11.9,-3.0,87,52,32,30.19,30.01,18,3,31,0.00
2013-1-31,47.3,40.8,32.6,21.0,7.3,-9.0,61,29,10,30.02,29.83,8,4,10,0.00
2013-2-1,52.5,46.4,43.1,20.0,0.8,-11.0,35,16,9,29.86,29.78,6,3,9,0.00
2013-2-2,53.6,48.9,42.9,21.0,2.6,-18.0,28,16,5,29.90,29.79,7,2,11,0.00
2013-2-3,50.8,45.8,39.3,32.0,15.5,-15.0,74,36,6,29.79,29.54,15,4,26,0.00
2013-2-4,48.3,40.6,37.0,36.0,33.8,31.0,89,77,61,29.68,29.57,14,4,21,0.00
2013-2-5,51.3,41.3,36.5,38.0,33.9,30.0,86,75,59,29.70,29.61,10,3,19,0.00
2013-2-6,44.3,38.2,34.7,35.0,32.1,30.0,87,79,66,29.71,29.57,14,5,24,0.00
2013-2-7,47.3,37.5,29.7,33.0,28.4,22.0,92,71,51,29.81,29.70,10,3,18,0.00
2013-2-8,40.2,36.6,28.0,24.0,16.8,8.0,74,46,29,29.69,29.40,23,8,32,0.00
2013-2-9,27.8,21.3,17.3,23.0,17.6,15.0,93,86,64,29.80,29.33,28,12,44,0.00
2013-2-10,33.8,24.4,17.4,22.0,13.9,5.0,88,66,45,29.84,29.74,20,5,27,0.00
2013-2-11,24.0,21.1,17.4,21.0,15.5,5.0,93,80,47,29.88,29.68,16,7,25,0.00
2013-2-12,29.0,20.2,12.9,27.0,16.4,-99.9,93,88,69,30.05,29.89,9,-8,11,0.04
2013-2-13,41.5,33.5,21.7,20.0,3.1,-18.0,65,30,11,30.04,29.84,5,1,7,0.04
2013-2-14,44.2,37.3,31.7,22.0,13.8,5.0,61,39,26,29.84,29.75,10,3,17,0.00
2013-2-15,44.6,39.0,35.0,18.0,11.7,6.0,47,33,21,29.97,29.82,12,5,14,0.00
2013-2-16,46.7,41.6,36.0,8.0,-1.0,-11.0,29,17,10,29.97,29.74,12,7,18,0.00
2013-2-17,46.6,41.4,35.2,15.0,5.1,-6.0,43,23,13,29.74,29.49,33,15,44,0.00
2013-2-18,46.1,37.8,32.8,15.0,8.8,-2.0,46,30,19,29.76,29.57,25,4,33,0.00
2013-2-19,42.3,37.1,30.2,19.0,10.2,5.0,63,33,24,29.64,29.34,15,6,32,0.00
2013-2-20,29.5,21.1,15.1,24.0,18.7,13.0,94,90,66,29.63,29.24,45,12,53,0.00
2013-2-21,28.0,22.0,15.0,25.0,19.7,12.0,95,91,84,29.84,29.63,26,7,31,0.00
2013-2-22,32.4,25.9,20.4,25.0,17.3,-4.0,93,73,25,29.92,29.76,13,5,19,0.01
2013-2-23,42.8,35.2,26.3,20.0,11.3,3.0,53,38,28,29.91,29.52,25,7,38,0.06
2013-2-24,32.4,21.8,17.9,20.0,7.1,-99.9,91,60,45,29.84,29.39,40,-18,46,0.06
2013-2-25,37.7,27.9,16.9,15.0,1.5,-35.0,70,41,4,30.04,29.84,12,4,19,0.00
2013-2-26,41.0,34.7,25.7,13.0,-2.7,-25.0,51,22,7,29.83,29.64,21,9,26,0.00
2013-2-27,40.4,31.0,24.7,9.0,0.6,-9.0,50,27,20,29.95,29.76,7,2,10,0.00
2013-2-28,43.9,34.6,26.7,9.0,-0.4,-18.0,34,23,9,30.09,29.92,10,2,11,0.00
2013-3-1,53.9,44.0,34.5,20.0,10.2,-18.0,41,26,9,30.08,29.94,6,2,10,0.00
2013-3-2,61.0,51.4,44.5,24.0,9.4,-6.0,28,19,9,29.96,29.77,12,3,17,0.00
2013-3-3,54.1,49.5,46.2,25.0,5.4,-16.0,42,18,6,29.76,29.54,35,13,43,0.00
2013-3-4,46.9,42.1,36.6,27.0,16.1,2.0,66,38,16,29.75,29.47,28,12,40,0.00
2013-3-5,54.2,44.5,38.6,26.0,21.1,18.0,50,40,28,29.81,29.71,15,6,18,0.00
2013-3-6,56.4,47.5,42.4,27.0,21.2,12.0,46,36,27,29.71,29.57,17,8,29,0.00
2013-3-7,51.1,44.5,39.9,27.0,18.8,11.0,57,37,21,29.60,29.51,19,9,35,0.00
2013-3-8,40.4,32.9,23.2,34.0,28.7,20.0,97,86,57,29.55,29.34,36,11,49,0.04
2013-3-9,26.9,24.6,22.4,25.0,23.1,20.0,96,93,86,29.84,29.55,28,10,36,0.04
2013-3-10,39.2,30.2,25.0,32.0,25.8,22.0,96,85,62,29.96,29.84,9,2,12,0.08
2013-3-11,52.6,43.3,31.0,30.0,12.6,-9.0,67,33,10,29.96,29.75,11,2,14,0.00
2013-3-12,56.1,48.6,42.9,23.0,11.4,-11.0,33,24,9,29.78,29.69,6,3,9,0.00
2013-3-13,61.1,53.6,48.0,22.0,17.5,11.0,31,24,19,29.81,29.72,8,2,9,0.00
2013-3-14,63.5,56.3,51.1,16.0,12.5,8.0,24,18,12,29.79,29.70,10,4,12,0.00
2013-3-15,65.2,57.8,52.3,22.0,11.8,-1.0,27,17,7,29.71,29.50,23,7,32,0.00
2013-3-16,58.9,52.9,46.7,24.0,15.9,7.0,38,24,14,29.50,29.38,34,12,38,0.00
2013-3-17,54.1,48.6,45.3,24.0,20.1,14.0,42,33,20,29.57,29.40,27,14,44,0.00
2013-3-18,59.3,48.6,42.9,22.0,16.2,8.0,36,28,17,29.66,29.53,21,8,25,0.00
2013-3-19,53.0,47.1,42.5,27.0,22.3,15.0,51,39,23,29.72,29.56,18,6,22,0.00
2013-3-20,60.1,50.7,44.1,27.0,21.9,13.0,42,33,22,29.72,29.51,24,5,31,0.00
2013-3-21,54.5,48.6,44.6,28.0,22.2,13.0,50,36,20,29.50,29.36,33,11,39,0.00
2013-3-22,51.7,45.4,40.9,29.0,25.5,23.0,63,46,36,29.45,29.31,23,11,30,0.00
2013-3-23,46.4,41.9,39.2,30.0,6.8,-7.0,67,25,13,29.66,29.42,26,14,36,0.00
2013-3-24,50.7,42.1,37.3,9.0,-1.2,-19.0,28,17,8,29.70,29.59,19,8,26,0.00
2013-3-25,56.6,46.3,38.5,14.0,10.6,4.0,31,24,16,29.70,29.61,11,4,13,0.00
2013-3-26,58.8,51.1,46.0,15.0,9.2,4.0,27,19,12,29.66,29.54,25,7,31,0.00
2013-3-27,57.2,49.8,45.4,20.0,14.1,9.0,34,24,18,29.64,29.51,19,9,26,0.00
2013-3-28,58.0,50.0,44.6,26.0,20.0,11.0,46,32,20,29.70,29.60,20,8,27,0.00
2013-3-29,62.2,52.2,45.0,30.0,19.3,6.0,53,29,16,29.74,29.67,11,5,17,0.00
2013-3-30,57.5,51.0,47.1,27.0,18.0,6.0,39,28,16,29.72,29.59,15,5,21,0.00
2013-3-31,60.8,50.6,44.3,26.0,21.9,16.0,41,33,24,29.69,29.58,25,7,33,0.00
2013-4-1,60.5,49.9,43.2,31.0,24.7,17.0,57,38,20,29.60,29.51,21,7,30,0.00
2013-4-2,51.0,45.3,40.7,22.0,13.7,-14.0,42,29,8,29.62,29.48,22,8,28,0.00
2013-4-3,58.4,47.5,40.7,27.0,22.7,20.0,49,39,24,29.73,29.60,23,6,29,0.00
2013-4-4,63.0,53.1,44.7,24.0,15.2,-4.0,43,24,7,29.75,29.63,15,3,17,0.00
2013-4-5,60.3,53.6,47.5,27.0,19.7,11.0,42,27,20,29.63,29.48,25,9,32,0.00
2013-4-6,62.1,51.5,43.1,28.0,25.0,20.0,47,37,24,29.59,29.49,20,7,34,0.00
2013-4-7,62.0,52.4,44.7,32.0,26.6,21.0,52,38,23,29.52,29.35,23,6,32,0.00
2013-4-8,54.3,45.6,27.7,34.0,28.7,21.0,94,54,29,29.36,29.00,36,13,45,0.00
2013-4-9,34.3,30.6,26.7,27.0,23.4,18.0,96,76,53,29.65,29.05,39,16,41,0.00
2013-4-10,42.2,34.8,28.4,26.0,20.4,16.0,72,57,42,29.75,29.62,19,6,33,0.00
2013-4-11,57.6,45.4,33.5,28.0,19.5,12.0,50,36,24,29.74,29.52,16,5,25,0.00
2013-4-12,52.6,47.0,42.8,24.0,18.7,14.0,39,33,28,29.53,29.43,13,3,17,0.00
2013-4-13,57.2,49.9,44.6,25.0,19.6,16.0,42,31,24,29.52,29.36,27,9,41,0.00
2013-4-14,56.7,49.0,42.9,33.0,23.3,16.0,61,37,24,29.42,29.33,34,13,51,0.00
2013-4-15,58.3,48.5,40.2,34.0,26.3,20.0,60,44,24,29.43,29.32,32,16,47,0.00
2013-4-16,55.0,47.6,41.7,36.0,24.9,14.0,75,43,26,29.43,29.37,29,15,41,0.00
2013-4-17,41.5,35.5,31.4,36.0,21.2,6.0,93,60,32,29.70,29.31,31,14,48,0.00
2013-4-18,48.1,36.4,26.7,12.0,6.0,2.0,49,29,18,29.90,29.70,24,3,27,0.00
2013-4-19,58.1,46.0,34.0,6.0,1.0,-9.0,26,16,9,29.89,29.66,15,5,20,0.00
2013-4-20,57.6,49.6,41.2,15.0,5.8,-12.0,25,17,9,29.67,29.57,22,9,31,0.00
2013-4-21,66.2,55.3,47.7,16.0,12.3,9.0,26,18,13,29.72,29.60,21,8,26,0.00
2013-4-22,66.3,57.3,50.1,19.0,12.6,6.0,24,17,11,29.61,29.43,22,9,32,0.00
2013-4-23,60.6,54.4,49.4,23.0,15.6,10.0,33,22,18,29.52,29.36,20,10,32,0.00
2013-4-24,63.3,54.5,47.2,23.0,18.8,14.0,39,26,15,29.57,29.50,14,6,23,0.00
2013-4-25,55.2,49.7,43.2,25.0,19.7,-4.0,46,31,13,29.65,29.46,31,8,48,0.00
2013-4-26,63.3,52.4,42.5,23.0,11.8,-12.0,33,21,8,29.78,29.66,11,4,19,0.00
2013-4-27,66.2,56.5,48.8,23.0,18.4,12.0,35,24,13,29.74,29.57,12,4,18,0.00
2013-4-28,70.6,60.1,53.4,18.0,11.0,6.0,24,15,10,29.59,29.41,13,4,21,0.00
2013-4-29,69.7,61.9,56.0,18.0,10.4,4.0,22,13,10,29.44,29.32,23,8,35,0.00
2013-4-30,67.9,60.3,53.5,21.0,12.8,6.0,27,16,12,29.39,29.32,24,10,35,0.00
2013-5-1,66.7,55.9,48.8,22.0,16.2,6.0,32,22,11,29.63,29.36,22,8,28,0.00
2013-5-2,63.7,54.5,44.6,21.0,13.2,6.0,32,20,13,29.73,29.61,20,7,24,0.00
2013-5-3,62.4,50.5,40.3,17.0,12.5,3.0,34,23,9,29.68,29.55,15,8,19,0.00
2013-5-4,65.8,56.9,50.4,24.0,13.5,8.0,31,18,14,29.54,29.36,18,7,28,0.00
2013-5-5,61.4,52.3,41.4,35.0,23.3,13.0,78,34,18,29.52,29.39,22,9,39,0.09
2013-5-6,53.9,46.6,39.0,38.0,34.8,29.0,93,66,40,29.63,29.44,23,8,35,0.24
2013-5-7,55.0,46.2,39.5,38.0,29.5,19.0,86,55,26,29.63,29.56,28,9,32,0.00
2013-5-8,58.7,46.1,36.6,37.0,31.5,22.0,88,59,28,29.65,29.58,16,4,20,0.00
2013-5-9,58.4,48.2,39.8,38.0,31.2,21.0,82,55,24,29.64,29.59,17,5,21,0.00
2013-5-10,59.5,49.8,44.5,36.0,29.8,27.0,61,47,32,29.75,29.60,16,3,22,0.03
2013-5-11,58.9,52.0,45.0,36.0,31.4,27.0,61,46,32,29.76,29.70,16,7,20,0.03
2013-5-12,63.5,54.7,45.3,35.0,30.5,26.0,63,41,26,29.78,29.67,19,8,21,0.00
2013-5-13,67.0,59.3,52.7,30.0,23.7,13.0,36,26,17,29.72,29.60,14,5,16,0.00
2013-5-14,70.7,62.5,54.9,32.0,23.7,12.0,35,23,17,29.61,29.48,18,5,34,0.00
2013-5-15,68.1,60.8,55.9,31.0,27.4,22.0,33,28,21,29.57,29.45,32,14,37,0.00
2013-5-16,68.9,60.8,54.7,29.0,22.5,16.0,36,24,14,29.53,29.43,19,9,29,0.00
2013-5-17,65.7,57.4,51.6,29.0,21.7,12.0,39,26,13,29.51,29.41,20,9,30,0.00
2013-5-18,63.5,54.6,48.0,29.0,22.1,10.0,46,30,15,29.55,29.46,19,9,28,0.00
2013-5-19,65.8,55.7,47.3,34.0,29.6,24.0,51,38,21,29.54,29.45,16,6,27,0.00
2013-5-20,62.0,56.0,49.7,31.0,24.1,15.0,47,30,21,29.54,29.44,24,10,38,0.00
2013-5-21,70.5,59.5,48.4,22.0,16.0,11.0,28,19,11,29.57,29.42,20,5,26,0.00
2013-5-22,69.8,62.7,54.9,22.0,17.2,11.0,25,17,11,29.43,29.34,17,6,22,0.00
2013-5-23,69.5,61.0,55.0,33.0,21.5,10.0,42,23,11,29.45,29.34,21,8,27,0.00
2013-5-24,69.8,60.7,51.6,37.0,24.8,10.0,57,30,10,29.54,29.43,18,6,25,0.00
2013-5-25,69.2,60.4,51.4,33.0,21.2,8.0,49,25,10,29.56,29.48,18,5,27,0.00
2013-5-26,67.0,58.7,50.3,23.0,13.1,2.0,32,18,8,29.58,29.49,20,7,31,0.00
2013-5-27,73.6,61.6,54.1,24.0,15.5,0.0,28,18,6,29.53,29.36,21,6,28,0.00
2013-5-28,66.0,58.4,52.0,30.0,19.6,5.0,41,23,12,29.36,29.23,26,8,44,0.00
2013-5-29,65.0,57.4,49.5,41.0,32.6,27.0,59,41,27,29.39,29.27,23,9,28,0.00
2013-5-30,68.8,60.5,51.1,45.0,38.7,31.0,78,47,27,29.46,29.36,22,8,32,0.00
2013-5-31,73.7,62.5,52.5,50.0,41.4,31.0,84,49,27,29.48,29.40,17,6,24,0.00
2013-6-1,78.9,68.7,58.8,40.0,34.8,17.0,44,30,17,29.46,29.36,17,5,19,0.00
2013-6-2,77.9,70.0,62.4,38.0,33.1,26.0,35,26,18,29.38,29.27,20,6,31,0.00
2013-6-3,74.4,65.2,57.5,36.0,24.4,17.0,43,22,13,29.43,29.28,18,8,27,0.00
2013-6-4,73.3,65.2,58.3,40.0,31.6,25.0,49,29,17,29.46,29.39,21,5,25,0.00
2013-6-5,75.1,65.5,56.5,35.0,23.4,8.0,41,22,11,29.46,29.40,20,6,22,0.00
2013-6-6,77.3,68.2,59.9,31.0,25.1,16.0,24,20,16,29.44,29.36,14,6,20,0.00
2013-6-7,80.4,70.9,64.7,31.0,26.1,22.0,23,19,14,29.39,29.28,17,6,23,0.00
2013-6-8,74.4,69.8,65.0,27.0,23.1,19.0,24,17,13,29.41,29.30,29,14,35,0.00
2013-6-9,77.4,70.0,63.6,26.0,18.2,1.0,20,14,8,29.48,29.38,27,10,35,0.00
2013-6-10,81.7,72.3,65.3,31.0,23.0,11.0,23,16,11,29.47,29.38,20,7,28,0.00
2013-6-11,82.9,72.8,66.2,29.0,23.2,14.0,22,16,8,29.46,29.37,25,8,27,0.00
2013-6-12,82.6,73.3,66.7,33.0,26.8,14.0,25,18,12,29.48,29.38,18,6,24,0.00
2013-6-13,75.9,69.3,63.6,42.0,37.0,29.0,44,31,24,29.45,29.35,18,8,31,0.00
2013-6-14,77.1,68.3,61.0,50.0,42.7,34.0,52,40,31,29.43,29.33,20,6,22,0.00
2013-6-15,75.9,67.7,62.8,54.0,42.1,35.0,72,40,32,29.46,29.39,14,4,26,0.03
2013-6-16,76.5,68.9,62.0,48.0,38.6,26.0,48,34,22,29.51,29.42,18,6,24,0.03
2013-6-17,76.9,68.6,60.5,32.0,26.9,21.0,30,21,14,29.50,29.41,17,6,25,0.00
2013-6-18,78.1,69.7,61.7,27.0,12.9,-18.0,23,13,2,29.44,29.35,16,6,26,0.00
2013-6-19,75.7,67.8,61.0,35.0,19.1,3.0,30,16,7,29.36,29.30,21,9,27,0.00
2013-6-20,75.4,67.1,59.1,31.0,15.3,-3.0,30,15,5,29.43,29.32,18,7,23,0.00
2013-6-21,75.5,66.7,59.2,39.0,24.5,3.0,44,23,8,29.48,29.37,15,8,26,0.00
2013-6-22,75.6,66.2,58.7,33.0,19.4,13.0,34,17,10,29.49,29.38,21,8,29,0.00
2013-6-23,72.2,64.8,56.9,31.0,21.0,12.0,30,19,11,29.43,29.34,20,8,34,0.00
2013-6-24,72.8,64.2,56.8,34.0,26.2,18.0,40,25,13,29.47,29.35,22,9,30,0.00
2013-6-25,76.5,66.7,56.4,39.0,20.5,5.0,50,20,8,29.56,29.43,18,6,30,0.00
2013-6-26,79.9,69.1,60.7,27.0,20.8,14.0,28,17,10,29.61,29.52,15,5,18,0.00
2013-6-27,72.1,66.0,63.2,33.0,26.6,19.0,29,23,16,29.61,29.55,15,8,21,0.00
2013-7-2,63.3,51.8,52.2,51.0,34.8,-99.9,95,68,53,29.56,0.00,13,-85,20,0.00
2013-7-3,76.8,69.4,63.0,51.0,45.7,39.0,54,43,37,29.51,29.32,16,5,25,0.00
2013-7-4,75.2,69.5,64.7,51.0,47.7,45.0,57,46,38,29.38,29.29,17,8,26,0.00
2013-7-5,71.1,65.2,60.2,57.0,53.7,46.0,87,67,47,29.44,29.32,17,6,23,0.04
2013-7-6,78.2,68.1,61.1,58.0,53.1,51.0,81,59,45,29.43,29.31,11,3,15,0.04
2013-7-7,79.4,69.8,63.6,56.0,50.3,46.0,64,51,37,29.44,29.30,12,3,26,0.14
2013-7-8,78.1,69.0,62.9,57.0,51.2,47.0,73,54,43,29.52,29.42,12,3,19,0.01
2013-7-9,73.6,66.5,58.4,62.0,55.8,47.0,82,69,47,29.57,29.45,15,4,23,0.16
2013-7-10,76.0,64.0,58.4,62.0,58.0,53.0,95,81,55,29.54,29.44,13,4,18,0.65
2013-7-11,68.7,61.9,58.6,62.0,58.1,54.0,95,87,79,29.53,29.46,16,3,19,0.65
2013-7-12,70.5,62.4,57.4,61.0,57.2,53.0,97,83,69,29.55,29.45,11,3,15,0.30
2013-7-13,70.6,64.6,59.3,60.0,56.0,53.0,93,74,63,29.53,29.44,12,2,15,0.09
2013-7-14,72.9,65.9,53.3,63.0,55.8,50.0,97,70,58,29.51,29.41,24,6,40,0.04
2013-7-15,73.9,65.7,53.7,60.0,55.2,47.0,97,69,54,29.43,29.32,30,7,41,1.66
2013-7-16,64.9,59.7,54.2,60.0,56.2,51.0,97,88,77,29.62,29.42,22,3,24,2.19
2013-7-17,70.6,62.3,56.4,56.0,51.9,48.0,91,70,53,29.65,29.57,11,5,13,0.00
2013-7-18,68.0,60.6,54.9,55.0,51.7,47.0,88,73,59,29.60,29.48,11,6,14,0.00
2013-7-19,67.8,60.8,56.1,59.0,54.4,51.0,92,79,65,29.56,29.43,10,4,12,0.07
2013-7-20,69.0,60.4,57.2,60.0,57.3,54.0,97,89,67,29.49,29.38,8,2,11,0.10
2013-7-21,67.9,60.1,56.6,61.0,57.6,54.0,98,91,71,29.55,29.42,8,3,13,0.11
2013-7-22,64.9,59.4,55.6,62.0,55.9,52.0,98,88,76,29.61,29.51,11,3,14,0.51
2013-7-23,67.7,61.6,56.8,60.0,56.3,53.0,94,83,70,29.60,29.49,15,5,24,0.00
2013-7-24,69.2,62.7,59.0,59.0,56.3,54.0,89,80,69,29.54,29.46,11,4,15,0.17
2013-7-25,66.2,62.4,58.5,61.0,57.5,53.0,95,84,67,29.64,29.50,6,2,12,0.01
2013-7-26,65.0,61.6,59.5,60.0,55.2,-99.9,97,81,69,29.68,29.61,11,-8,15,0.07
2013-7-27,70.3,63.1,57.1,62.0,57.6,53.0,96,82,69,29.65,29.47,8,3,13,0.63
2013-7-28,72.9,66.1,61.3,56.0,51.2,43.0,81,60,44,29.50,29.40,15,5,24,0.00
2013-7-29,74.0,66.4,60.3,50.0,45.1,40.0,54,47,39,29.61,29.46,12,4,16,0.00
2013-7-30,76.2,67.3,61.6,52.0,47.3,44.0,55,49,39,29.67,29.58,13,4,17,0.00
2013-7-31,77.3,67.4,60.5,55.0,49.0,45.0,79,53,40,29.63,29.53,10,3,15,0.09
2013-8-1,68.2,64.2,61.3,58.0,53.5,50.0,81,69,60,29.57,29.49,7,3,12,0.09
2013-8-2,67.8,62.4,57.2,60.0,52.8,-99.9,90,73,54,29.58,29.48,13,-6,24,0.01
2013-8-3,72.1,66.4,61.7,59.0,52.8,50.0,71,62,56,29.60,29.51,15,2,18,0.01
2013-8-4,71.9,65.2,59.0,60.0,52.3,42.0,80,64,43,29.57,29.50,13,4,18,0.04
2013-8-5,71.5,61.7,53.9,56.0,50.0,45.0,93,67,48,29.61,29.48,13,4,18,0.19
2013-8-6,58.9,55.7,53.2,56.0,52.3,46.0,98,88,74,29.62,29.52,21,4,29,0.03
2013-8-7,66.1,59.5,51.8,55.0,50.0,44.0,98,73,48,29.69,29.60,20,9,32,0.05
2013-8-8,71.3,63.9,59.1,49.0,41.7,28.0,59,46,26,29.60,29.49,12,4,15,0.00
2013-8-9,76.4,67.6,61.9,45.0,38.6,28.0,42,35,25,29.53,29.45,9,3,13,0.00
2013-8-10,75.9,66.8,61.3,44.0,37.5,30.0,42,34,29,29.59,29.49,13,4,16,0.00
2013-8-11,71.8,63.9,58.6,57.0,50.3,31.0,75,62,31,29.55,29.46,12,3,17,0.03
2013-8-12,75.7,67.3,61.0,59.0,47.9,31.0,71,52,28,29.54,29.46,17,4,19,0.03
2013-8-13,77.4,68.7,62.0,48.0,37.4,26.0,41,32,23,29.57,29.46,8,2,11,0.00
2013-8-14,77.9,69.2,61.2,53.0,46.3,37.0,74,45,34,29.52,29.42,7,2,12,0.00
2013-8-15,75.7,68.3,61.3,52.0,49.1,46.0,66,51,39,29.55,29.47,7,2,9,0.00
2013-8-16,79.2,71.3,65.6,53.0,47.9,41.0,56,45,27,29.54,29.46,8,3,20,0.00
2013-8-17,79.5,69.9,63.7,55.0,47.3,-99.9,59,46,35,29.52,29.39,14,-8,18,0.00
2013-8-18,78.4,68.2,61.4,53.0,47.5,44.0,61,48,33,29.55,29.46,9,2,14,0.04
2013-8-19,77.9,70.1,64.4,52.0,46.9,39.0,51,44,35,29.54,29.43,15,4,16,0.00
2013-8-20,77.3,65.3,57.8,55.0,50.5,46.0,81,60,42,29.53,29.42,14,4,27,0.08
2013-8-21,69.9,64.3,60.0,55.0,50.4,45.0,72,61,52,29.57,29.48,8,2,13,0.01
2013-8-22,72.9,64.0,59.5,57.0,51.6,45.0,73,64,50,29.58,29.46,9,2,13,0.23
2013-8-23,73.0,63.3,54.8,54.0,51.1,48.0,90,65,46,29.50,29.37,9,2,17,0.42
2013-8-24,62.7,57.7,53.8,57.0,52.9,46.0,95,84,65,29.59,29.47,15,3,18,0.01
2013-8-25,66.4,59.9,56.4,60.0,56.1,52.0,97,88,70,29.63,29.54,13,3,14,0.44
2013-8-26,69.1,63.7,60.0,61.0,55.7,50.0,86,75,58,29.59,29.47,11,6,14,0.60
2013-8-27,72.2,66.1,61.6,55.0,50.7,47.0,74,58,46,29.50,29.40,13,7,16,0.00
2013-8-28,71.0,62.2,57.4,58.0,55.0,52.0,94,78,58,29.56,29.38,11,5,15,0.10
2013-8-29,65.4,59.6,56.6,62.0,57.0,55.0,98,91,80,29.69,29.55,7,2,12,0.72
2013-8-30,67.5,61.3,57.3,62.0,55.8,52.0,95,82,70,29.68,29.58,15,3,26,0.06
2013-8-31,68.7,62.3,57.1,60.0,55.9,50.0,92,80,64,29.61,29.49,18,6,21,0.07
2013-9-1,71.2,64.2,58.2,60.0,56.1,47.0,93,75,62,29.55,29.45,15,4,20,0.02
2013-9-2,73.8,66.0,58.5,59.0,54.4,51.0,89,67,46,29.55,29.43,12,2,17,0.00
2013-9-3,71.1,65.2,59.9,58.0,51.9,47.0,78,63,54,29.56,29.47,11,2,14,0.03
2013-9-4,73.4,67.3,62.5,52.0,47.7,40.0,67,51,39,29.58,29.50,11,6,17,0.03
2013-9-5,72.8,67.2,62.3,50.0,46.7,42.0,54,48,40,29.55,29.48,12,5,15,0.00
2013-9-6,72.7,65.8,61.5,52.0,48.8,46.0,69,55,45,29.55,29.44,8,4,10,0.00
2013-9-7,64.8,58.2,53.4,57.0,52.5,50.0,93,81,65,29.55,29.48,10,3,18,0.40
2013-9-8,64.0,57.3,54.5,58.0,54.3,50.0,97,90,78,29.54,29.41,8,3,12,0.08
2013-9-9,61.3,55.5,53.4,58.0,53.8,51.0,98,94,84,29.45,29.37,9,3,16,0.64
2013-9-10,60.8,55.3,50.7,54.0,50.1,47.0,97,82,71,29.57,29.43,13,5,20,0.32
2013-9-11,64.1,56.9,52.2,51.0,46.9,39.0,92,70,51,29.64,29.55,15,4,20,0.00
2013-9-12,68.7,61.2,57.0,55.0,49.1,39.0,87,65,49,29.57,29.42,7,2,9,0.00
2013-9-13,66.1,60.5,56.2,59.0,53.1,48.0,95,78,56,29.43,29.32,7,3,10,0.00
2013-9-14,71.1,63.8,59.0,58.0,51.5,45.0,78,65,43,29.38,29.30,7,2,11,0.00
2013-9-15,70.6,63.8,58.8,55.0,51.1,48.0,78,64,48,29.43,29.34,6,2,9,0.00
2013-9-16,69.5,63.0,58.4,57.0,53.7,50.0,81,72,63,29.48,29.41,8,4,11,0.01
2013-9-17,68.4,63.9,58.8,57.0,52.9,49.0,83,68,55,29.45,29.35,8,3,9,0.00
2013-9-18,73.3,65.3,59.8,52.0,44.0,34.0,72,48,33,29.41,29.29,13,3,18,0.00
2013-9-19,71.6,63.9,59.0,49.0,43.3,37.0,67,48,37,29.42,29.32,11,3,12,0.00
2013-9-20,73.1,63.9,57.6,55.0,47.8,40.0,70,57,42,29.46,29.38,6,2,9,0.00
2013-9-21,71.4,63.4,57.9,54.0,48.8,46.0,76,60,42,29.46,29.32,7,2,12,0.00
2013-9-22,62.2,57.4,52.8,55.0,47.0,30.0,93,70,41,29.35,29.21,30,10,38,0.44
2013-9-23,68.6,57.6,50.5,42.0,31.5,2.0,69,40,12,29.58,29.35,18,3,26,0.00
2013-9-24,71.9,61.7,54.8,42.0,36.2,28.0,53,40,23,29.61,29.47,13,3,17,0.00
2013-9-25,65.9,59.3,53.2,31.0,25.5,12.0,36,28,19,29.47,29.29,28,9,42,0.00
2013-9-26,63.0,55.9,50.9,50.0,34.8,17.0,90,47,24,29.40,29.30,24,9,32,0.00
2013-9-27,55.8,47.9,44.0,49.0,38.9,22.0,95,73,40,29.65,29.30,14,6,28,0.00
2013-9-28,63.8,52.9,44.0,40.0,33.5,22.0,67,49,37,29.76,29.64,7,2,12,0.00
2013-9-29,68.0,58.0,52.5,42.0,38.1,32.0,62,48,36,29.73,29.60,10,2,12,0.00
2013-9-30,68.5,58.7,52.4,36.0,26.3,4.0,45,30,11,29.61,29.51,8,3,12,0.00
2013-10-1,68.4,57.6,53.8,36.0,26.1,-99.9,52,32,14,29.59,29.50,14,-16,19,0.00
2013-10-2,66.3,55.8,51.0,41.0,37.0,34.0,55,50,37,29.57,29.50,8,3,14,0.00
2013-10-30,46.1,40.1,35.9,32.0,8.2,-99.9,69,35,8,29.73,29.57,15,-14,19,0.00
2013-10-31,52.1,44.5,37.9,16.0,-2.1,-16.0,28,15,8,29.81,29.72,13,4,17,0.00
2013-11-1,55.0,49.1,42.5,22.0,10.0,-13.0,35,22,6,29.82,29.74,12,3,14,0.00
2013-11-2,58.7,51.4,40.8,39.0,15.0,5.0,90,25,16,29.75,29.53,14,6,24,0.16
2013-11-3,51.5,46.1,41.6,41.0,38.1,35.0,96,74,61,29.55,29.43,21,7,28,0.27
2013-11-4,50.0,44.6,40.9,42.0,38.1,34.0,90,78,61,29.49,29.40,20,8,28,0.00
2013-11-5,42.5,38.3,34.7,38.0,34.4,26.0,95,86,71,29.85,29.45,17,3,33,0.00
2013-11-6,48.8,43.7,35.2,27.0,0.1,-22.0,72,19,5,29.99,29.86,16,5,17,0.00
2013-11-7,50.8,46.6,42.3,28.0,9.9,-23.0,49,26,5,29.93,29.79,18,9,25,0.00
2013-11-8,58.1,50.0,46.1,31.0,28.9,27.0,52,45,35,29.78,29.64,7,2,12,0.00
2013-11-9,57.7,50.2,46.0,33.0,30.8,28.0,55,48,38,29.75,29.66,5,2,12,0.00
2013-11-10,60.1,53.0,47.2,32.0,30.9,29.0,51,43,34,29.78,29.69,8,3,10,0.00
2013-11-11,60.5,54.8,51.2,36.0,32.9,30.0,52,44,36,29.73,29.65,9,4,11,0.00
2013-11-12,58.9,50.8,42.3,40.0,34.7,26.0,80,56,41,29.83,29.72,19,8,19,0.00
2013-11-13,58.0,48.3,41.3,42.0,38.3,32.0,88,70,47,29.82,29.68,15,6,18,0.00
2013-11-14,56.6,50.6,48.0,35.0,29.9,19.0,58,46,29,29.67,29.48,21,7,26,0.00
2013-11-15,48.7,45.1,42.1,43.0,39.0,23.0,92,80,37,29.48,29.26,24,12,44,0.00
2013-11-16,46.8,41.7,37.3,40.0,34.0,24.0,94,76,46,29.54,29.30,29,12,42,0.00
2013-11-17,49.6,42.1,36.5,39.0,35.5,30.0,92,78,52,29.77,29.54,23,5,37,0.00
2013-11-18,55.1,46.6,42.2,42.0,38.2,31.0,93,74,53,29.78,29.67,6,2,10,0.00
2013-11-19,54.7,48.6,43.4,34.0,20.0,-11.0,67,36,8,29.68,29.50,17,6,29,0.00
2013-11-20,51.3,45.8,42.7,38.0,27.6,9.0,80,52,22,29.52,29.42,21,11,31,0.00
2013-11-21,45.5,42.1,39.0,41.0,36.1,29.0,97,80,55,29.59,29.49,20,7,27,0.20
2013-11-22,43.7,41.3,36.7,43.0,41.0,37.0,99,98,97,29.54,29.46,20,9,29,1.62
2013-11-23,36.1,32.1,30.2,36.0,31.9,30.0,99,99,98,29.75,29.50,14,4,20,0.66
2013-11-24,32.4,29.7,27.0,32.0,29.0,24.0,99,97,84,29.86,29.73,8,2,13,0.00
2013-11-25,37.5,32.3,26.3,33.0,24.9,16.0,95,75,42,29.98,29.84,7,3,11,0.00
2013-11-26,36.1,33.3,29.9,26.0,23.5,19.0,83,68,55,30.01,29.91,23,11,24,0.00
2013-11-27,44.4,36.7,28.9,22.0,17.6,14.0,66,48,30,29.95,29.79,15,5,19,0.01
2013-11-28,45.3,41.7,38.6,30.0,24.2,16.0,67,51,35,29.78,29.70,9,3,13,0.07
2013-11-29,49.7,43.7,38.9,35.0,27.3,19.0,77,54,31,29.87,29.77,10,4,18,0.00
2013-11-30,50.5,47.0,42.5,33.0,18.8,6.0,65,36,17,29.85,29.75,12,6,20,0.00
2013-12-1,54.4,49.1,45.8,24.0,12.9,-14.0,38,24,7,29.83,29.75,14,5,24,0.00
2013-12-2,54.9,49.6,43.6,22.0,3.1,-25.0,31,17,4,29.76,29.52,19,5,21,0.00
2013-12-3,49.9,45.8,38.1,36.0,15.5,-1.0,83,36,13,29.51,29.32,27,13,35,0.00
2013-12-4,39.0,36.5,31.7,36.0,32.5,28.0,97,86,65,29.48,29.34,28,12,55,0.00
2013-12-5,31.6,25.4,18.4,31.0,24.3,17.0,97,95,92,29.75,29.46,20,8,30,0.00
2013-12-6,30.8,24.1,15.6,24.0,10.1,-12.0,92,58,25,29.94,29.75,13,4,23,0.00
2013-12-7,34.1,29.5,25.2,20.0,4.1,-16.0,82,39,13,29.85,29.68,27,14,50,0.00
2013-12-8,34.4,28.7,24.9,26.0,21.9,10.0,93,77,39,29.80,29.67,36,14,45,0.00
2013-12-9,35.0,29.3,24.4,25.0,-6.7,-99.9,91,36,1,30.04,29.72,21,7,31,0.00
2013-12-10,47.4,41.6,34.8,15.0,-21.8,-99.9,30,9,1,30.03,29.79,9,2,13,0.00
2013-12-11,44.9,42.3,39.9,36.0,29.3,14.0,77,62,32,29.86,29.75,13,4,16,0.00
2013-12-12,46.0,41.2,34.0,39.0,35.4,27.0,89,80,72,29.84,29.69,12,5,25,0.00
2013-12-13,39.9,33.8,27.9,31.0,22.0,3.0,92,66,26,29.88,29.66,20,8,25,0.00
2013-12-14,40.3,34.8,29.7,25.0,15.4,4.0,78,46,27,30.02,29.86,13,5,21,0.00
2013-12-15,56.6,47.2,36.8,22.0,7.8,-12.0,32,21,10,30.03,29.86,11,3,11,0.00
2013-12-16,61.4,55.2,50.2,16.0,5.7,-16.0,22,14,5,29.86,29.75,7,2,8,0.00
2013-12-17,62.1,55.1,51.2,24.0,7.2,-4.0,26,15,9,29.82,29.70,3,0,4,0.00
2013-12-18,59.9,52.9,42.7,24.0,8.4,-4.0,47,19,9,29.70,29.38,13,4,24,0.00
2013-12-19,43.1,37.2,32.2,25.0,21.0,17.0,70,53,38,29.38,29.31,24,10,40,0.00
2013-12-20,34.3,28.9,25.5,32.0,26.4,21.0,96,90,63,29.47,29.27,24,5,30,0.00
2013-12-21,27.4,25.8,24.8,26.0,21.9,-99.9,96,93,95,29.60,29.46,23,-22,29,0.00
2013-12-22,36.7,33.2,29.0,29.0,6.8,-13.0,91,44,13,30.05,29.96,7,2,9,0.00
2013-12-23,48.5,37.9,31.3,17.0,-5.5,-99.9,43,21,1,30.10,29.99,16,-16,17,0.00
2013-12-24,53.1,47.3,39.3,20.0,-20.8,-99.9,45,12,1,29.98,29.72,8,2,11,0.01
2013-12-25,43.1,39.1,34.0,23.0,8.5,-34.0,55,34,3,29.92,29.75,13,5,16,0.01
2013-12-26,43.3,37.6,30.0,16.0,7.0,-10.0,50,30,11,29.96,29.88,13,6,18,0.00
2013-12-27,40.2,37.9,35.9,16.0,8.8,0.0,39,30,20,29.92,29.84,14,8,16,0.00
2013-12-28,45.3,40.3,35.3,17.0,-0.9,-21.0,46,19,7,29.86,29.61,14,4,20,0.00
2013-12-29,40.4,34.6,30.8,21.0,14.3,-99.9,56,45,35,29.89,29.59,8,-9,11,0.00
2013-12-30,46.8,39.4,33.5,20.0,10.2,0.0,50,31,16,30.02,29.88,6,2,8,0.00
2013-12-31,51.1,44.1,39.8,20.0,10.5,2.0,36,26,17,29.97,29.78,8,2,15,0.00
2014-1-1,51.2,44.6,41.0,20.0,16.1,11.0,43,32,24,29.81,29.73,12,5,15,0.00
2014-1-2,48.8,44.6,41.1,22.0,17.5,10.0,39,34,23,29.85,29.75,11,5,14,0.00